Location: Chin
(49.7667°N, 112.4500°W)
Time: 11:41:43
(UTC+00:00)

Envisat - Pass Details

Date: 06 December 2021
Orbit: 764 x 766 km, 98.2° (Epoch: 25 January)

Event Time Altitude Azimuth Distance (km) Brightness Sun altitude
Rises 14:16:09 0° 3° (N) 3,247 6.0 -8.7°
Reaches altitude 10° 14:19:06 10° 345° (NNW) 2,316 5.1 -8.2°
Maximum altitude 14:22:30 18° 303° (WNW) 1,801 4.3 -7.7°
Drops below altitude 10° 14:25:53 10° 261° (W) 2,305 5.0 -7.3°
Sets 14:28:49 0° 244° (WSW) 3,227 5.9 -6.8°
